Houma, LA

9:15 AM CST on December 15, 2017 (GMT -0600)
Houma-terrebonne

Weather History for KHUM - October, 2012

Change the Weather History Date:

Friday, October 12, 2012

  Actual Average Record
Temperature  
Mean Temperature 72 °F -  
Max Temperature 84 °F 82 °F 91 °F (1962)
Min Temperature 60 °F 59 °F 42 °F (1951)
Cooling Degree Days 7    
Growing Degree Days 22 (Base 50)    
Moisture  
Dew Point 66 °F    
Average Humidity 95    
Maximum Humidity 100    
Minimum Humidity 62    
Precipitation  
Precipitation 0.00 in - - ()
Sea Level Pressure  
Sea Level Pressure 30.19 in    
Wind  
Wind Speed 2 mph (East)    
Max Wind Speed 12 mph    
Max Gust Speed -    
Visibility 4 miles    
Events Fog , Rain    
Averages and records for this station are not official NWS values.
T = Trace of Precipitation, MM = Missing Value Source: NWS Daily Summary

Daily Weather History Graph

Daily Weather History Graph

Search for Another Location

Airport or City:

Trip Planner

Search our weather history database for the weather conditions in past years. The results will help you decide how hot, cold, wet, or windy it might be!

Date:

Astronomy

Oct. 12, 2012 Rise Set
Actual Time 7:02 AM CDT 6:34 PM CDT
Civil Twilight 6:38 AM CDT 6:58 PM CDT
Nautical Twilight 6:11 AM CDT 7:26 PM CDT
Astronomical Twilight 5:43 AM CDT 7:54 PM CDT
Moon 3:58 AM CDT (10/12) 4:35 PM CDT (10/12)
Length of Visible Light 12h 20m
Length of Day
11h 32m
Waning Crescent, 10% of the Moon is Illuminated
Oct 12
Waning Crescent
Oct 15
New
Oct 21
First Quarter
Oct 29
Full
Nov 6
Last Quarter

Hourly Weather History & Observations

Time (CDT) Temp. Heat Index Dew Point Humidity Pressure Visibility Wind Dir Wind Speed Gust Speed Precip Events Conditions
12:35 AM 64.0 °F - 64.0 °F 100% 30.19 in 4.0 mi Calm Calm - N/A   Clear
12:55 AM 61.0 °F - 61.0 °F 100% 30.18 in 1.0 mi Calm Calm - N/A   Mist
1:15 AM 62.8 °F - 62.8 °F 100% 30.17 in 5.0 mi Calm Calm - N/A   Clear
1:35 AM 62.2 °F - 62.2 °F 100% 30.17 in 3.0 mi Calm Calm - N/A   Clear
1:55 AM 63.5 °F - 63.5 °F 100% 30.17 in 0.8 mi Calm Calm - N/A   Mist
2:15 AM 62.6 °F - 62.6 °F 100% 30.17 in 0.8 mi Calm Calm - N/A   Mist
2:35 AM 62.2 °F - 62.2 °F 100% 30.17 in 0.2 mi Calm Calm - N/A Fog Fog
2:55 AM 60.4 °F - 60.4 °F 100% 30.17 in 2.0 mi Calm Calm - N/A   Clear
3:15 AM 61.7 °F - 61.7 °F 100% 30.17 in 0.5 mi Calm Calm - N/A Fog Fog
3:35 AM 60.4 °F - 60.4 °F 100% 30.16 in 1.5 mi Calm Calm - N/A   Mist
3:55 AM 61.5 °F - 61.5 °F 100% 30.16 in 0.5 mi Calm Calm - N/A Fog Fog
4:15 AM 61.7 °F - 61.7 °F 100% 30.16 in 0.2 mi Calm Calm - N/A Fog Fog
4:35 AM 61.7 °F - 61.7 °F 100% 30.16 in 0.2 mi Calm Calm - N/A Fog Fog
5:15 AM 62.8 °F - 62.8 °F 100% 30.17 in 1.2 mi Calm Calm - N/A   Mist
5:35 AM 61.9 °F - 61.9 °F 100% 30.17 in 0.2 mi Calm Calm - N/A Rain Heavy Rain
5:55 AM 60.1 °F - 60.1 °F 100% 30.17 in 0.2 mi Calm Calm - N/A Rain Heavy Rain
6:50 AM 62.6 °F - 62.6 °F 100% 30.18 in 3.0 mi Calm Calm - N/A   Clear
7:50 AM 64.4 °F - 64.4 °F 100% 30.18 in 3.0 mi Calm Calm - N/A   Clear
8:50 AM 69.8 °F - 69.8 °F 100% 30.24 in 6.0 mi Calm Calm - N/A   Scattered Clouds
9:50 AM 75.2 °F - 71.6 °F 89% 30.24 in 7.0 mi NE 9.2 mph - N/A   Scattered Clouds
10:50 AM 78.8 °F - 71.6 °F 78% 30.25 in 7.0 mi ENE 9.2 mph - N/A   Scattered Clouds
12:50 PM 84.2 °F 88.4 °F 69.8 °F 62% 30.22 in 7.0 mi ENE 11.5 mph - N/A   Scattered Clouds
2:50 PM 80.6 °F 83.9 °F 69.8 °F 70% 30.20 in 7.0 mi ENE 6.9 mph - N/A   Scattered Clouds
3:50 PM 82.4 °F 86.3 °F 69.8 °F 66% 30.18 in 7.0 mi SE 6.9 mph - N/A   Scattered Clouds
6:50 PM 73.4 °F - 69.8 °F 88% 30.18 in 7.0 mi East 9.2 mph - N/A   Scattered Clouds
7:15 PM 72.5 °F - 69.8 °F 91% 30.18 in 10.0 mi East 4.6 mph - N/A   Clear
7:35 PM 73.0 °F - 70.2 °F 91% 30.19 in 10.0 mi East 5.8 mph - N/A   Scattered Clouds
7:55 PM 72.5 °F - 70.2 °F 92% 30.19 in 7.0 mi East 5.8 mph - N/A   Scattered Clouds
8:15 PM 71.8 °F - 70.2 °F 95% 30.19 in 10.0 mi East 4.6 mph - N/A   Clear
8:35 PM 71.4 °F - 70.2 °F 96% 30.20 in 7.0 mi East 4.6 mph - N/A   Clear
8:55 PM 71.1 °F - 70.7 °F 99% 30.20 in 7.0 mi ESE 5.8 mph - N/A   Clear
9:15 PM 70.9 °F - 70.7 °F 99% 30.20 in 7.0 mi East 4.6 mph - N/A   Clear
9:35 PM 70.7 °F - 70.7 °F 100% 30.20 in 7.0 mi ESE 4.6 mph - N/A   Clear
10:15 PM 69.6 °F - 69.6 °F 100% 30.20 in 7.0 mi ESE 3.5 mph - N/A   Clear
10:55 PM 68.9 °F - 68.9 °F 100% 30.19 in 7.0 mi ESE 3.5 mph - N/A   Clear
11:15 PM 67.8 °F - 67.8 °F 100% 30.19 in 5.0 mi Calm Calm - N/A   Clear
11:35 PM 67.6 °F - 67.6 °F 100% 30.19 in 5.0 mi Calm Calm - N/A   Clear